This is the latest recevied weather packets stored in our database for station/object N5SOR-1. If no packets are shown the sender has not sent any weather packets the latest 10 day(s).
| Time | Temp. | Humidity | Pressure | Rain* | Wind** | Luminosity | Snow |
|---|---|---|---|---|---|---|---|
| 1777094939 | 24.44° C | 11% | 1006.3 hPa | 0 mm | - | 0 W/m² | - |
| 1777094278 | 24.44° C | 11% | 1006.4 hPa | 0 mm | - | 0 W/m² | - |
| 1777093618 | 24.44° C | 11% | 1006.4 hPa | 0 mm | - | 0 W/m² | - |
| 1777092957 | 24.44° C | 11% | 1006.4 hPa | 0 mm | - | 0 W/m² | - |
| 1777092297 | 24.44° C | 11% | 1006.3 hPa | 0 mm | - | 0 W/m² | - |
| 1777091636 | 23.89° C | 11% | 1006.4 hPa | 0 mm | - | 0 W/m² | - |
| 1777090975 | 23.89° C | 11% | 1006.5 hPa | 0 mm | - | 0 W/m² | - |
| 1777090315 | 23.89° C | 11% | 1006.5 hPa | 0 mm | - | 0 W/m² | - |
| 1777089654 | 23.89° C | 11% | 1006.6 hPa | 0 mm | - | 0 W/m² | - |
| 1777088993 | 23.89° C | 11% | 1006.6 hPa | 0 mm | - | 0 W/m² | - |
| 1777088333 | 24.44° C | 10% | 1006.6 hPa | 0 mm | - | 0 W/m² | - |
| 1777087672 | 25° C | 10% | 1006.7 hPa | 0 mm | - | 0 W/m² | - |
| 1777087012 | 24.44° C | 10% | 1006.5 hPa | 0 mm | - | 0 W/m² | - |
| 1777086351 | 24.44° C | 10% | 1006.5 hPa | 0 mm | - | 0 W/m² | - |
| 1777085690 | 24.44° C | 11% | 1006.5 hPa | 0 mm | - | 0 W/m² | - |
| 1777085030 | 25° C | 10% | 1006.1 hPa | 0 mm | - | 0 W/m² | - |
| 1777084369 | 25.56° C | 10% | 1005.9 hPa | 0 mm | - | 0 W/m² | - |
| 1777083708 | 25.56° C | 10% | 1005.8 hPa | 0 mm | - | 0 W/m² | - |
| 1777083048 | 26.11° C | 10% | 1005.7 hPa | 0 mm | - | 0 W/m² | - |
| 1777082387 | 26.67° C | 9% | 1005.6 hPa | 0 mm | - | 0 W/m² | - |
| 1777081727 | 26.67° C | 10% | 1005.6 hPa | 0 mm | - | 0 W/m² | - |
| 1777081066 | 26.67° C | 10% | 1005.7 hPa | 0 mm | - | 0 W/m² | - |
| 1777080405 | 27.22° C | 9% | 1005.6 hPa | 0 mm | - | 7 W/m² | - |
| 1777079745 | 28.33° C | 8% | 1005.6 hPa | 0 mm | - | 54 W/m² | - |
| 1777077763 | 29.44° C | 10% | 1005.2 hPa | 0 mm | - | 230 W/m² | - |
* Rain latest hour (hover to see other rain measurements)
** Current wind speed in m/s (hover to see current wind gust speed)